This is the latest recevied weather packets stored in our database for station/object M0TUM-1. If no packets are shown the sender has not sent any weather packets the latest 1 day(s).
| Time | Temp. | Humidity | Pressure | Rain* | Wind** | Luminosity | Snow |
|---|---|---|---|---|---|---|---|
| 1778095761 | 8.89° C | 79% | 1014.6 hPa | 0 mm | - | 0 W/m² | - |
| 1778095155 | 8.89° C | 79% | 1014.3 hPa | 0 mm | - | 1 W/m² | - |
| 1778094851 | 8.89° C | 79% | 1014.4 hPa | 0 mm | - | 2 W/m² | - |
| 1778092730 | 9.44° C | 79% | 1013.9 hPa | 0 mm | - | 10 W/m² | - |
| 1778090912 | 10° C | 79% | 1013.8 hPa | 0 mm | - | 29 W/m² | - |
| 1778089093 | 10° C | 79% | 1013.3 hPa | 0 mm | - | 68 W/m² | - |
| 1778088487 | 10° C | 79% | 1013.4 hPa | 0 mm | - | 91 W/m² | - |
| 1778086064 | 10.56° C | 80% | 1013.1 hPa | 0 mm | - | 88 W/m² | - |
| 1778085761 | 10.56° C | 80% | 1013.1 hPa | 0 mm | - | 108 W/m² | - |
| 1778085458 | 10.56° C | 80% | 1013.1 hPa | 0 mm | - | 98 W/m² | - |
| 1778084849 | 10° C | 81% | 1013.2 hPa | 0 mm | - | 77 W/m² | - |
| 1778084244 | 10° C | 83% | 1013.1 hPa | 0 mm | - | 66 W/m² | - |
| 1778083335 | 10° C | 85% | 1013.1 hPa | 0 mm | - | 39 W/m² | - |
| 1778081598 | 10.56° C | 86% | 1013.1 hPa | 0 mm | - | 58 W/m² | - |
| 1778081295 | 10° C | 86% | 1013.2 hPa | 0 mm | - | 134 W/m² | - |
| 1778080992 | 10° C | 85% | 1013.2 hPa | 0 mm | - | 81 W/m² | - |
| 1778080691 | 10° C | 85% | 1013.1 hPa | 0 mm | - | 75 W/m² | - |
| 1778080084 | 10° C | 84% | 1013.2 hPa | 0 mm | - | 64 W/m² | - |
| 1778079781 | 10° C | 84% | 1013 hPa | 0 mm | - | 62 W/m² | - |
| 1778079478 | 10° C | 84% | 1013 hPa | 0 mm | - | 47 W/m² | - |
| 1778079174 | 10° C | 83% | 1012.9 hPa | 0 mm | - | 37 W/m² | - |
| 1778078872 | 10° C | 83% | 1013.1 hPa | 0 mm | - | 38 W/m² | - |
| 1778077662 | 10.56° C | 82% | 1012.8 hPa | 0 mm | - | 49 W/m² | - |
| 1778074027 | 10.56° C | 84% | 1012.8 hPa | 0 mm | - | 267 W/m² | - |
| 1778073117 | 10.56° C | 85% | 1013 hPa | 0 mm | - | 233 W/m² | - |
* Rain latest hour (hover to see other rain measurements)
** Current wind speed in m/s (hover to see current wind gust speed)